Content
SEND FEEDBACK

Daily
Averages
Monthly
Summary
United States of America

HEATH, MASSACHUSETTS


Home > North America > United States > Massachusetts
Elevation: 1450 feet     Latitude: 42 40N     Longitude: 072 49W

WEATHER
 
SELECT A DAY
Number of Records: 199,139;   Date Range: 10/28/95 - 9/29/14
 
SHARE

PRINT THIS DATA

[ ← Previous Day ]
WEATHER ALMANAC - JULY 30, 2014
[ Next Day → ]
[ °C ]   °F
Weather ElementAverageHighLow
Temperature62.5 °F73.9 °F (1:52 pm)55 °F (1:52 am)
Dewpoint54 °F57 °F (5:52 pm)48.9 °F (3:02 am)
Humidity76.6 %97 % (12:13 am)42 % (12:52 pm)
Barometer30.02 in30.05 in (4:23 am)29.99 in (7:52 am)
Wind Speed1.2 mph5.8 mph (10:10 am)
Weather ElementAverage
Visibility10 mi
Wind DirectionNNE (37.4 °)

Weather ElementTotal
Precipitation---
Heating Degree Days0.5 (Base 65)
Growing Degree Days14.5 (Base 50)
Averaged from 19 records on July 30, 2014
WEATHER CONDITIONS BREAKOUT
WIND DIRECTION BREAKOUT
WEATHER BY HOUR - JULY 30, 2014
[ °C ]   °F
Local TimeTemperatureDewpointHumidityBarometerVisibilityWind DirectionWind SpeedGust SpeedPrecipitationEventsConditions
12:52 AM55.0 °F53.1 °F93 %29.99 in10.0 miCalmOvercast
2:52 AM55.0 °F54.0 °F96 %29.99 in10.0 miCalmOvercast
3:52 AM55.9 °F54.0 °F93 %29.99 in10.0 miCalmOvercast
4:52 AM55.0 °F54.0 °F96 %30.00 in10.0 miCalmOvercast
5:52 AM55.9 °F54.0 °F93 %30.01 in10.0 miCalmOvercast
6:52 AM55.9 °F55.0 °F97 %30.02 in10.0 miCalmOvercast
7:52 AM57.9 °F55.0 °F90 %30.04 in10.0 miCalmOvercast
8:52 AM60.1 °F55.9 °F86 %30.05 in10.0 miCalmOvercast
9:52 AM63.0 °F55.9 °F78 %30.04 in10.0 miCalmOvercast
10:52 AM68.0 °F55.9 °F65 %30.04 in10.0 miCalmScattered Clouds
11:52 AM70.0 °F57.0 °F63 %30.02 in10.0 miNorth (350°)4.6 mphOvercast
1:52 PM72.0 °F54.0 °F53 %30.00 in10.0 miNorth (360°)5.8 mphMostly Cloudy
2:52 PM73.9 °F53.1 °F48 %29.99 in10.0 miVariable3.5 mphMostly Cloudy
3:52 PM73.0 °F48.9 °F42 %29.99 in10.0 miVariable3.5 mphScattered Clouds
5:52 PM73.0 °F50.0 °F44 %30.00 in10.0 miVariable5.8 mphClear
6:52 PM71.1 °F52.0 °F51 %30.00 in10.0 miCalmClear
8:52 PM60.1 °F55.9 °F86 %30.04 in10.0 miCalmClear
9:52 PM57.0 °F54.0 °F89 %30.04 in10.0 miCalmClear
10:52 PM55.9 °F54.0 °F93 %30.05 in10.0 miCalmClear
Hourly data recorded from KAQW, located miles away from Heath, Massachusetts







STORIES FROM OUR PARTNERS